Theta_e
315 318 318 319 320 318 316 314 314 314 315 315 316 317 318 318 318 317 317 319 318 316 319 319 317 316 316 316 316 314 314 313 313 313 313 311 310 308 307 306 305 304 304 303 301 301 301 301 302 302 302 303 304 305 306 307 307 308 309 310 310 313 315 317 319 320 321 322 322 322 322 322 322 322 323 323 323 323 323 322 322 322 322 322 322 322
314 318 321 320 319 317 316 314 313 314 315 315 316 318 319 320 319 317 316 317 315 316 320 320 316 316 315 315 315 314 313 312 313 314 312 310 308 307 306 305 304 304 303 302 301 301 300 300 301 301 301 301 302 303 304 305 306 307 308 308 309 309 312 314 315 317 319 319 319 320 320 320 320 321 321 321 321 321 321 321 321 321 321 321 321 321
315 318 320 318 316 316 315 315 314 316 316 317 319 320 320 321 320 320 319 317 315 315 320 320 316 316 316 315 314 313 312 311 311 311 309 308 307 306 305 304 304 303 302 301 301 300 300 300 300 300 300 300 300 301 302 303 304 305 306 307 307 308 308 309 311 313 314 315 316 316 317 318 319 319 319 319 319 319 319 319 319 319 318 319 318 319
320 320 318 315 315 315 315 316 317 317 318 320 320 320 322 321 319 321 321 319 316 315 317 318 318 318 316 315 313 311 311 310 308 308 307 307 306 305 304 303 303 302 302 301 300 300 299 299 299 299 299 299 299 299 300 301 302 303 304 305 306 307 307 307 308 309 309 310 311 312 313 314 315 316 316 317 317 317 317 317 317 317 317 316 316 316
320 321 317 315 316 316 316 317 318 318 320 324 323 321 322 320 318 320 320 318 318 319 319 316 321 327 322 317 315 311 310 309 307 307 306 305 305 304 304 303 302 302 301 301 300 299 298 298 298 298 299 299 298 298 299 299 300 301 302 303 304 305 305 306 307 307 307 307 307 308 309 309 310 310 310 311 311 311 312 312 313 313 313 313 313 313
318 318 318 318 318 318 318 319 320 320 321 326 327 323 321 321 320 322 323 321 321 324 320 314 322 333 329 322 319 312 310 309 307 306 305 305 304 303 303 302 302 301 300 300 299 298 298 297 297 298 298 298 298 298 298 298 299 299 300 302 303 303 304 305 305 306 306 306 307 306 306 306 306 306 306 306 307 308 308 308 308 308 308 308 309 309
318 318 320 322 322 320 319 322 323 321 319 322 325 323 324 323 320 323 322 320 324 325 319 314 319 325 321 319 319 314 311 310 307 306 305 304 303 302 302 301 301 300 300 299 298 297 297 296 296 296 297 297 297 297 297 297 298 298 299 300 301 302 302 303 304 305 305 305 306 305 305 305 305 305 304 304 305 306 307 307 307 306 306 305 305 306
318 318 320 321 322 320 321 323 323 322 322 324 323 321 323 322 317 319 316 317 324 322 320 318 316 317 318 317 316 315 314 311 307 306 305 303 302 301 301 300 299 299 298 298 298 297 296 295 295 295 295 296 296 296 296 297 297 297 297 298 299 299 300 301 302 303 303 303 304 304 304 304 303 303 304 304 304 304 305 305 305 305 304 304 304 303
318 318 321 321 320 321 324 325 322 323 324 326 322 316 317 316 315 318 315 318 321 317 322 325 316 316 323 324 318 315 317 313 308 307 304 303 302 301 300 299 298 298 297 297 296 295 295 294 294 294 294 295 295 295 295 295 296 296 296 297 297 297 297 298 299 300 301 301 302 302 302 302 302 302 303 303 303 303 303 303 303 303 303 303 303 302
318 317 320 323 322 321 325 325 324 323 321 321 320 318 321 319 317 317 316 318 318 317 323 325 319 318 326 333 323 315 318 317 310 307 304 303 302 300 300 298 297 297 296 296 294 294 293 293 294 293 293 294 294 294 294 294 295 295 296 296 296 295 296 296 296 297 298 299 299 299 300 300 300 301 301 301 302 302 302 302 302 302 302 302 302 302
316 313 314 319 320 321 324 321 319 321 317 317 320 324 326 325 322 319 320 321 316 321 328 325 321 318 323 336 328 316 319 317 309 307 304 302 301 299 298 297 296 296 296 295 294 292 293 293 293 293 293 293 293 293 293 293 293 294 294 294 295 294 294 294 295 295 296 296 297 297 298 298 298 299 299 299 299 300 300 300 300 301 301 301 301 301
315 313 315 319 318 317 320 317 316 318 317 317 321 324 324 327 329 323 322 322 319 327 335 327 323 318 320 333 326 314 315 312 309 307 303 302 301 299 298 297 296 295 295 295 294 293 292 292 292 292 292 292 292 293 292 292 292 292 293 293 293 293 293 293 294 294 294 294 295 295 296 296 296 296 296 297 297 297 298 298 299 299 299 299 299 299
320 319 318 318 316 314 317 318 318 317 317 318 320 323 324 326 329 326 324 324 323 329 331 325 324 320 320 326 319 312 310 308 308 306 302 301 299 298 298 297 296 295 295 294 294 293 291 291 291 291 291 291 291 292 292 292 291 291 291 292 292 292 291 291 292 292 293 293 293 294 294 294 294 294 294 295 295 295 296 296 297 297 297 298 298 298
326 324 317 315 317 317 317 317 320 322 318 316 318 322 326 325 326 328 326 323 323 327 326 322 322 323 325 322 312 307 304 303 304 302 300 300 298 298 298 297 297 296 295 294 294 293 291 290 291 291 291 291 291 291 291 291 291 290 290 290 291 291 290 290 290 290 291 291 292 292 292 292 292 293 293 293 293 293 294 294 294 295 295 295 296 296
326 327 322 319 320 318 315 314 323 330 320 314 319 323 326 328 327 326 325 323 324 329 328 323 321 327 331 319 305 302 302 300 301 300 299 299 298 298 298 297 297 296 296 295 295 293 290 290 291 290 290 290 290 290 290 290 289 289 289 289 289 290 289 289 288 288 289 289 290 290 290 290 290 290 291 291 291 291 291 292 293 293 293 293 294 294
321 326 325 319 316 316 316 315 321 327 321 315 318 321 323 327 326 323 324 324 323 326 326 323 325 327 320 309 303 303 301 300 300 299 299 299 298 298 298 297 297 296 296 296 296 294 290 290 290 290 290 290 290 289 289 289 288 288 288 288 288 288 288 288 287 287 287 287 287 287 287 287 287 287 288 288 288 288 289 289 289 290 290 291 291 292
319 325 323 316 314 315 317 317 316 320 323 319 318 322 325 326 323 322 325 324 320 322 322 321 324 321 312 308 305 303 302 301 300 299 299 299 298 299 298 298 297 296 295 295 295 293 290 289 290 290 290 290 289 289 289 288 288 288 288 287 287 287 287 287 287 287 287 286 286 286 286 286 286 286 286 286 286 286 286 286 287 287 287 287 288 288
322 324 322 318 318 317 315 317 317 317 320 320 320 324 323 321 322 322 323 324 322 322 322 320 322 320 317 314 307 303 304 302 300 299 299 298 299 299 298 297 297 296 295 295 294 291 289 289 290 289 290 290 290 290 289 289 288 288 287 287 287 287 287 287 287 287 287 287 286 286 286 286 286 286 286 286 285 285 285 285 286 286 286 286 286 286
323 324 325 322 320 319 316 317 319 317 316 317 319 321 319 318 322 322 322 323 321 320 321 323 322 320 321 319 310 306 306 302 300 300 299 299 299 299 298 297 297 296 295 295 295 293 290 290 290 290 290 290 290 290 290 290 289 288 288 287 287 287 287 287 287 287 287 287 287 287 287 286 286 286 286 286 286 286 286 286 286 286 286 286 286 286
325 325 326 322 319 320 319 320 324 322 317 316 317 319 319 319 320 320 321 323 321 319 319 321 319 319 320 317 311 309 305 301 300 300 300 300 299 299 300 298 297 297 296 295 296 294 291 290 290 290 290 291 291 291 291 291 290 289 288 288 288 287 287 287 287 287 287 287 287 287 287 287 287 287 287 287 287 287 287 287 287 287 287 287 287 286
323 323 324 323 320 320 321 323 325 324 320 318 318 318 318 319 320 319 319 320 321 320 320 319 319 320 317 309 308 308 304 300 301 302 302 301 300 300 300 299 299 298 296 296 296 294 292 291 291 291 291 291 291 291 291 291 290 290 289 288 288 288 288 287 287 287 287 287 287 288 287 287 287 287 287 287 287 287 287 287 287 288 287 287 287 287
319 320 324 325 321 321 324 323 320 321 323 323 322 321 322 321 321 319 318 319 319 320 320 318 319 321 313 306 305 305 303 302 302 303 304 302 301 301 299 299 298 297 297 297 296 293 292 292 292 292 292 291 291 290 290 290 289 289 289 288 288 288 288 288 287 287 287 287 287 287 287 287 287 287 287 287 287 287 287 287 287 287 287 287 287 287
317 320 322 322 319 320 321 319 317 319 323 323 321 321 323 323 321 319 319 320 319 318 318 317 318 318 311 306 306 303 303 304 302 304 306 303 300 300 299 297 296 296 296 296 294 292 292 293 292 292 292 291 291 290 289 289 289 289 289 289 288 288 288 288 288 287 287 287 287 287 287 287 287 287 287 287 287 287 287 287 287 287 287 287 287 287
318 320 321 321 321 319 318 317 317 318 318 319 317 317 320 320 319 318 317 317 317 317 317 317 318 317 310 307 306 303 303 304 302 303 306 302 299 298 297 296 295 296 296 296 294 292 292 292 292 292 292 291 291 290 289 289 289 289 289 289 289 289 288 288 288 288 288 287 287 287 287 287 287 287 287 287 286 286 286 286 286 286 286 286 286 286
318 318 318 319 318 317 317 317 317 318 317 316 316 315 315 315 316 315 315 316 316 315 316 316 317 317 310 305 304 304 304 304 302 301 303 303 301 298 296 296 295 295 296 296 295 293 292 292 292 292 291 291 290 290 290 289 289 289 289 289 289 289 288 288 288 288 288 288 288 287 287 287 287 287 287 286 286 286 286 286 286 286 286 286 286 285
318 316 316 316 315 314 315 316 316 316 316 314 315 315 314 314 315 314 313 315 315 314 313 313 314 314 310 305 305 305 304 304 303 302 301 302 301 298 297 296 296 296 296 296 296 294 292 291 291 291 291 291 290 290 290 289 289 289 289 289 289 289 289 289 288 288 288 288 288 287 287 287 287 287 286 286 286 286 286 286 285 285 285 285 285 285
317 315 315 316 315 313 313 313 313 313 313 312 312 313 311 311 312 312 312 313 313 312 311 310 311 311 310 308 307 307 306 305 305 304 302 301 300 298 297 297 297 297 297 296 296 295 293 291 291 291 291 291 290 290 290 290 290 289 289 289 289 289 289 289 288 288 288 288 287 287 287 287 286 286 286 286 286 286 285 285 285 285 285 285 285 285
315 313 314 313 313 313 312 311 311 311 310 311 311 310 310 309 309 310 310 310 310 310 309 309 308 308 308 308 307 308 308 307 306 305 303 301 299 298 297 298 298 297 296 296 295 295 295 293 290 290 291 291 290 290 290 290 290 290 289 289 289 289 289 288 288 288 288 287 287 287 286 286 286 285 285 285 285 285 284 284 284 284 284 284 284 284
314 313 312 311 312 312 310 310 310 309 308 308 308 308 308 307 307 307 307 308 309 309 308 307 306 306 306 305 305 306 306 306 305 304 302 300 298 298 297 297 297 296 296 296 296 296 297 293 289 288 290 290 290 290 290 289 290 289 289 289 289 288 288 288 288 287 287 287 286 286 285 285 285 285 284 284 284 283 283 283 284 284 283 283 283 283
312 311 310 309 309 309 308 307 307 307 307 306 306 306 305 305 305 305 304 305 307 307 306 306 306 306 304 303 304 305 304 302 301 299 299 298 298 298 297 296 297 297 298 298 298 297 296 291 287 288 289 289 289 289 289 288 288 288 289 289 288 288 287 287 287 287 286 286 285 285 284 284 284 283 283 283 282 282 283 283 282 282 282 282 282 282
308 308 308 307 308 308 307 305 305 307 307 305 305 305 304 304 304 303 303 303 304 304 304 305 305 304 304 303 303 301 299 298 297 297 297 298 297 297 296 297 297 297 296 296 295 294 293 288 286 288 288 288 288 287 287 287 287 287 287 287 287 287 286 286 286 285 285 284 284 284 283 283 282 282 281 281 281 281 281 281 281 280 280 280 280 281
308 307 306 306 306 306 304 302 304 305 305 304 303 301 301 301 301 302 303 303 303 303 303 303 303 302 304 305 302 297 296 295 295 295 295 295 296 296 295 295 295 294 294 293 292 293 293 288 286 287 287 287 286 286 286 286 286 285 285 284 284 284 284 284 283 283 283 282 281 281 280 280 280 280 280 279 279 279 279 279 279 278 278 278 278 278
308 307 306 306 304 303 301 301 303 303 301 301 300 299 299 299 299 300 300 301 301 301 301 301 301 301 302 304 301 296 294 294 293 293 293 293 294 294 294 294 294 294 293 293 293 292 291 288 286 287 287 286 286 286 285 284 284 283 282 282 282 282 282 282 281 280 280 279 278 278 277 277 278 277 278 277 277 277 277 277 276 276 276 276 276 276
305 305 306 306 303 301 300 301 301 300 299 298 299 300 300 299 299 299 299 299 300 300 300 300 301 302 303 303 301 297 294 293 292 292 292 293 293 293 294 294 294 293 292 292 292 289 287 286 286 286 286 285 285 284 283 283 282 281 281 281 280 280 279 278 278 277 276 276 275 275 275 275 275 275 275 275 274 274 274 274 274 274 274 274 274 274
304 303 304 304 302 300 300 301 300 298 298 298 300 302 301 300 300 300 299 299 299 300 300 298 300 304 302 299 298 296 293 292 292 292 293 294 293 293 294 294 293 292 292 292 291 288 285 286 286 285 285 284 283 282 282 281 281 280 280 279 278 277 276 275 275 274 274 274 274 274 274 273 273 272 272 272 271 271 271 271 271 271 271 271 272 272
302 302 302 302 301 300 300 300 298 297 297 297 298 298 298 297 298 298 298 298 297 298 297 297 299 301 298 294 294 293 292 292 293 293 293 294 293 293 293 293 293 292 291 290 290 287 285 285 285 284 283 282 281 281 280 279 278 278 277 276 275 275 274 273 273 272 272 272 272 272 271 271 270 270 269 269 269 268 268 268 268 268 268 268 268 268
300 300 300 300 299 299 298 298 298 297 297 297 296 296 296 296 296 297 298 298 297 297 298 299 299 296 293 292 292 292 293 293 293 291 290 291 293 293 291 291 292 290 288 287 287 286 284 284 283 283 282 281 280 279 278 277 276 275 275 274 273 273 272 272 271 271 271 270 270 269 268 268 268 267 267 267 266 266 266 266 266 266 266 266 266 266
298 299 299 298 298 298 297 297 298 296 296 296 296 295 295 296 297 298 299 299 298 297 298 300 297 293 291 292 291 292 294 293 292 291 289 290 293 292 289 288 288 288 287 286 286 284 283 283 282 281 280 279 278 277 276 275 274 273 273 272 271 271 270 270 270 270 269 268 268 267 267 266 266 265 265 265 265 264 264 264 264 264 264 264 264 264
297 297 298 298 298 297 297 297 297 295 296 297 295 295 294 296 298 299 299 298 298 295 295 296 295 292 292 292 291 292 293 292 294 294 292 291 291 290 289 287 286 286 286 285 284 283 282 281 280 279 278 277 276 275 274 273 272 271 271 270 270 269 269 269 268 268 267 266 266 266 265 265 265 264 264 264 263 263 263 263 263 263 263 263 263 263
295 296 297 297 297 297 297 296 296 296 297 296 295 295 294 296 299 298 296 297 297 294 293 296 295 292 292 292 291 292 293 293 295 295 294 291 289 288 288 287 285 284 284 283 282 282 280 279 279 278 276 275 274 273 272 272 271 270 269 269 268 268 267 267 267 266 265 265 265 264 264 264 264 263 263 263 263 262 262 262 262 262 262 262 262 262
295 295 296 296 297 297 297 297 296 296 296 296 295 296 295 295 296 295 295 298 300 295 292 294 294 292 292 292 292 292 293 294 294 294 292 290 288 287 287 286 285 284 282 281 280 280 279 278 277 275 274 273 272 272 271 270 269 269 268 267 267 267 266 265 265 265 264 264 264 263 263 263 263 263 262 262 262 262 262 262 262 262 262 262 262 262
294 294 295 295 295 295 295 296 296 295 295 296 295 294 293 293 294 296 297 298 299 297 293 292 292 292 292 292 292 292 293 293 293 292 291 290 290 288 285 283 283 281 280 279 278 278 277 276 274 273 272 271 271 270 269 268 268 267 266 266 266 266 265 264 264 264 263 263 263 263 262 262 262 262 262 262 262 261 261 261 261 261 261 261 261 261
294 293 294 295 295 294 294 294 294 293 293 294 294 293 293 295 297 299 297 295 295 297 295 292 292 292 292 292 292 292 293 292 292 291 291 291 291 288 283 282 282 280 278 278 277 276 275 274 273 272 271 270 270 269 268 267 266 266 265 265 265 264 264 263 263 263 263 262 262 262 262 262 262 262 261 261 261 261 261 261 261 261 261 261 261 261
294 295 296 295 295 295 295 294 294 295 294 293 295 296 296 297 298 299 297 294 294 295 294 292 292 292 291 292 292 292 292 292 291 290 290 291 290 286 281 280 280 279 278 277 275 274 274 273 272 270 270 269 269 268 268 266 265 264 264 264 264 263 263 263 263 262 262 262 262 262 262 262 261 261 261 261 261 261 260 260 260 260 260 261 261 261
294 295 297 295 293 294 296 297 298 297 295 294 294 296 298 297 297 296 295 295 295 294 293 292 293 292 291 292 292 292 291 291 290 290 290 289 289 285 280 279 279 278 277 275 274 273 273 272 271 269 269 268 268 267 266 265 264 264 264 264 264 263 263 262 262 262 262 262 262 262 261 261 261 261 261 261 261 260 260 260 260 260 260 260 260 260
293 293 292 292 293 292 294 296 295 293 293 293 293 294 295 295 295 294 293 293 294 294 292 291 292 292 292 292 291 290 290 290 290 290 289 288 286 282 278 277 276 276 275 274 272 272 272 271 270 269 267 267 266 265 265 264 264 263 263 263 263 262 262 262 262 262 261 261 261 261 261 261 261 261 261 261 261 260 260 260 260 260 260 260 260 260
293 292 291 291 293 292 291 292 292 292 293 293 292 292 292 293 293 293 292 292 292 292 292 291 291 291 291 291 290 290 289 290 290 290 288 287 285 280 276 275 274 273 273 272 271 271 270 270 269 267 266 266 265 264 264 264 264 263 263 263 262 262 262 262 261 261 261 261 261 261 261 261 261 261 261 260 260 260 260 260 260 260 259 260 260 260
293 293 292 291 291 291 291 291 292 292 292 291 291 291 291 292 292 292 292 291 291 291 291 289 289 290 290 290 289 290 290 289 290 289 286 285 283 278 274 274 274 272 271 271 270 270 269 268 267 266 265 264 264 263 263 263 263 263 263 262 262 262 262 261 261 261 261 261 261 261 261 261 260 260 260 260 260 260 260 260 260 259 259 260 260 260
292 292 292 292 292 292 291 291 291 291 291 290 290 290 290 291 292 291 290 290 290 290 290 289 287 287 288 289 289 289 290 289 288 287 286 284 281 276 273 273 272 271 270 270 269 268 267 266 266 265 264 264 263 263 262 263 263 263 263 262 262 262 261 261 261 260 260 260 260 260 260 260 260 260 260 260 260 260 260 260 260 260 260 261 261 262
291 291 291 292 292 292 291 291 291 291 290 291 291 291 290 290 290 290 290 290 289 289 290 290 287 284 284 285 285 287 290 289 285 283 283 281 277 273 272 271 270 270 269 268 268 267 266 265 265 264 263 263 263 262 262 263 263 263 263 262 262 261 261 261 260 260 260 260 260 260 260 260 260 260 260 260 260 260 260 260 260 261 262 262 262 263
292 292 291 292 292 291 291 291 291 291 291 291 291 291 291 290 290 290 290 289 289 289 289 289 288 286 284 282 280 283 287 285 280 279 280 277 272 271 271 270 269 269 268 267 266 266 265 264 264 263 263 262 262 262 262 262 263 263 262 262 262 261 261 260 260 260 260 260 260 260 260 260 260 260 260 260 260 260 260 260 260 261 262 262 263 264
Wind_Speed
3 3 2 4 6 8 10 11 11 10 8 8 7 6 6 6 5 6 6 7 5 4 6 7 6 6 7 9 12 14 10 7 8 5 5 8 8 7 9 8 9 10 7 11 19 23 26 28 29 30 30 31 31 31 31 32 31 28 25 23 22 17 12 9 7 4 3 4 4 5 5 5 5 5 6 8 9 11 12 13 15 16 17 18 19 21
3 4 6 9 11 11 11 10 8 7 7 6 6 5 5 5 5 5 6 7 5 3 5 4 6 8 8 10 15 14 8 8 6 5 8 9 9 7 8 8 8 7 6 11 17 22 27 28 28 29 30 31 30 30 31 30 29 27 25 24 23 21 18 16 11 7 6 5 4 3 3 3 3 3 4 5 7 8 10 11 13 14 15 16 17 19
3 4 10 12 11 9 9 7 6 7 7 5 4 4 4 4 4 5 5 6 5 2 5 6 6 7 9 12 14 9 6 6 7 10 9 8 10 8 8 7 7 8 8 10 13 19 24 26 27 28 28 29 29 29 30 29 27 25 24 23 21 20 20 19 15 12 11 9 7 5 4 3 3 3 2 4 5 7 8 9 10 11 12 13 14 16
4 6 12 12 8 7 8 8 7 7 5 4 4 4 5 4 2 4 5 6 5 2 3 5 6 5 8 10 7 8 8 10 10 12 11 9 10 9 7 7 7 9 9 10 11 14 19 23 25 27 27 28 29 30 30 29 27 26 24 23 20 19 18 18 16 15 13 11 11 10 7 6 5 5 3 3 4 6 7 8 9 10 11 11 12 13
6 7 8 7 5 8 9 9 7 5 4 3 4 4 5 4 3 5 4 5 5 4 2 4 6 4 6 7 2 5 5 9 8 9 11 8 8 8 8 9 8 8 8 9 10 10 15 20 23 25 26 27 29 30 29 28 27 26 25 24 22 20 19 18 16 14 13 13 13 12 11 9 9 8 5 3 1 3 4 5 7 8 9 10 11 12
7 7 5 5 6 6 7 7 6 5 2 4 4 6 6 5 4 3 3 4 5 4 4 5 5 5 4 5 3 4 5 7 6 7 9 7 7 7 8 9 7 8 8 8 9 10 13 16 20 24 26 27 28 28 28 28 27 26 26 25 24 23 21 19 17 15 14 15 15 16 16 16 14 13 12 10 6 2 2 1 2 3 4 6 8 10
5 4 3 5 6 6 6 6 6 6 3 3 4 5 6 5 3 1 4 4 2 2 4 4 1 6 3 6 7 4 7 5 5 7 7 6 6 6 7 7 6 7 7 7 9 10 12 16 19 22 24 26 26 26 27 28 28 28 28 27 26 25 23 21 19 16 15 16 17 17 17 17 16 15 15 14 10 5 2 1 0 1 2 4 5 6
4 3 3 4 4 4 5 5 5 7 5 3 5 5 6 4 2 1 3 1 3 2 5 2 4 4 3 7 8 5 8 3 4 6 5 6 6 7 7 6 7 7 7 7 8 9 12 16 18 20 22 24 25 25 27 29 30 30 29 29 28 26 25 23 20 19 18 18 17 17 16 16 15 15 14 14 12 10 8 5 2 3 4 4 5 5
2 4 5 5 4 3 5 6 5 7 5 5 5 5 5 2 2 2 3 1 3 1 5 5 4 2 4 6 4 5 6 2 4 4 4 5 5 6 6 7 7 7 7 7 7 9 12 16 18 19 21 24 26 27 28 29 29 30 30 31 31 30 28 25 23 21 20 20 19 19 18 17 16 14 12 11 11 12 11 9 6 6 6 6 6 6
0 4 7 6 5 5 6 5 3 6 3 4 4 3 4 2 1 2 4 2 1 1 5 6 4 2 5 5 2 3 4 5 4 4 4 5 5 5 6 7 6 6 7 7 7 10 14 17 18 19 22 25 27 28 29 29 30 30 31 31 32 32 30 29 26 24 23 22 21 21 20 20 18 16 14 12 12 12 12 11 11 9 8 7 7 7
2 2 2 4 4 5 4 1 2 4 4 3 5 4 6 5 3 2 2 3 3 2 6 8 7 5 3 5 2 2 3 7 8 5 5 5 5 6 6 6 6 5 6 6 6 10 14 16 18 21 24 25 27 28 30 30 30 30 30 30 31 31 30 30 29 28 27 25 25 24 22 22 21 19 17 16 16 15 14 14 14 13 11 10 8 7
2 2 2 2 2 3 5 2 3 3 3 5 5 4 4 4 4 4 4 4 2 4 7 6 6 7 4 5 4 2 2 6 9 8 9 8 6 5 5 6 5 5 6 5 5 7 11 14 18 21 23 24 27 28 29 28 28 29 29 29 30 30 29 30 29 29 28 28 28 27 25 24 22 21 20 20 20 18 17 17 16 14 13 13 12 10
2 4 4 3 1 3 6 2 3 5 4 5 4 5 3 2 3 2 2 0 2 5 6 3 3 4 6 6 2 4 7 4 5 7 10 10 8 6 5 5 4 4 5 5 5 5 8 11 15 19 21 23 25 26 26 26 27 27 27 27 28 28 28 29 28 28 27 28 29 28 27 26 24 23 23 22 22 20 19 18 17 17 17 16 15 14
3 5 3 0 3 3 7 4 2 2 1 5 4 4 4 2 1 2 3 2 3 5 5 3 1 0 4 4 3 5 5 5 9 10 9 9 8 6 5 5 4 4 5 5 4 5 7 10 14 16 18 21 22 23 24 24 24 25 25 26 26 26 26 27 27 27 27 27 27 27 28 27 26 26 25 24 24 22 21 20 19 19 19 18 18 16
2 5 3 5 2 3 8 6 5 4 3 4 5 5 5 4 4 4 3 3 3 5 4 3 0 2 3 1 3 5 5 7 10 10 9 8 7 6 5 5 4 4 4 4 4 5 7 11 13 15 18 19 20 22 23 23 23 24 24 24 24 24 24 24 25 26 26 26 26 26 27 27 27 26 25 25 24 24 24 23 22 22 21 20 20 18
3 5 5 2 1 6 6 3 4 6 1 2 3 4 2 3 4 2 3 4 3 4 4 2 2 3 3 2 3 5 6 8 8 8 8 7 5 5 5 4 4 4 4 4 4 5 7 11 14 15 17 18 19 21 21 22 22 22 22 22 22 22 22 23 24 24 25 25 25 26 26 26 26 26 25 25 24 24 24 24 24 24 23 23 22 21
2 4 4 3 1 5 6 3 3 3 1 1 2 2 4 4 5 1 4 2 1 3 4 2 2 2 2 2 2 4 7 7 6 6 7 6 5 5 4 3 3 2 2 2 3 4 7 10 13 14 16 16 17 19 19 20 20 20 20 21 21 21 21 22 22 22 23 24 25 25 26 26 25 25 25 24 24 23 23 23 24 24 24 24 24 24
3 3 4 1 1 4 4 3 1 2 3 4 2 5 3 1 3 2 1 2 1 3 4 2 4 4 2 2 0 3 5 5 4 5 6 5 4 4 3 3 2 2 1 2 3 5 7 10 11 12 13 13 14 14 15 16 17 18 18 19 19 20 20 20 20 20 21 22 23 24 24 24 24 24 23 23 23 23 24 24 24 24 24 24 23 24
3 1 6 2 3 3 2 3 2 5 3 4 3 3 1 1 1 0 1 1 3 4 4 5 6 5 4 4 3 4 5 6 5 5 5 5 4 4 4 4 4 2 1 2 3 4 6 8 9 10 10 10 11 10 11 11 12 13 14 15 15 16 16 16 16 17 18 19 20 20 20 21 21 21 21 21 22 23 25 26 26 26 26 25 25 24
2 2 4 4 0 1 4 3 2 4 4 3 1 2 1 3 3 2 2 3 3 4 4 5 6 4 3 4 5 7 8 8 7 5 5 5 6 6 5 5 4 3 2 2 2 2 4 6 6 7 8 7 7 7 6 6 7 8 9 9 10 11 11 12 13 14 15 15 15 16 17 17 19 20 21 21 22 23 25 26 27 27 27 27 28 28
2 2 3 4 4 1 1 1 5 4 1 2 2 1 1 1 1 1 2 2 3 4 4 5 6 4 2 2 4 6 7 8 8 7 6 6 6 6 6 5 5 4 3 2 1 2 2 3 3 4 4 3 3 3 3 3 3 4 5 5 6 7 8 9 10 11 11 12 11 12 12 12 15 17 18 20 21 23 24 25 26 27 27 28 28 29
1 2 2 3 3 1 4 5 5 6 5 4 3 3 3 1 0 3 4 2 3 3 4 5 6 4 2 1 1 5 7 7 7 8 7 7 8 7 6 5 5 4 3 2 1 2 2 3 3 2 1 1 0 1 1 1 1 2 2 3 4 5 6 7 8 9 9 10 9 9 10 9 10 13 15 16 18 20 22 23 25 26 27 28 29 29
2 3 1 3 4 4 6 5 1 4 6 5 2 2 3 3 3 3 5 2 1 2 1 2 3 2 1 2 1 5 7 7 8 8 8 8 7 7 6 5 3 3 3 3 3 5 7 7 7 5 3 2 2 1 1 1 1 1 1 1 2 3 5 6 7 9 9 10 10 9 10 9 9 11 13 14 16 17 19 20 22 24 25 27 29 30
3 3 1 3 4 3 4 4 5 4 4 3 1 0 3 3 4 4 4 1 1 3 3 3 4 2 2 3 2 4 5 6 7 7 7 6 6 6 5 4 3 3 3 4 5 6 7 7 5 5 5 4 5 4 4 3 3 2 2 3 4 5 6 6 7 9 9 10 11 11 12 12 12 13 16 17 18 19 20 21 22 23 24 25 27 29
1 1 2 0 3 5 5 4 5 5 2 2 2 2 2 3 3 2 2 1 2 5 6 6 5 2 1 0 1 2 4 5 6 7 6 5 6 5 5 4 4 4 4 5 5 5 5 5 5 6 7 6 6 6 5 4 3 3 4 6 7 7 8 9 8 8 9 10 10 12 14 15 15 17 19 20 21 23 24 25 26 27 27 27 28 29
2 2 3 4 4 6 4 3 2 1 2 0 2 2 2 3 4 2 1 3 4 2 1 4 4 2 1 1 1 3 5 6 7 7 6 6 5 5 5 5 5 5 5 5 5 5 6 7 8 9 9 8 8 6 5 5 4 5 6 7 8 8 8 9 9 9 10 11 11 12 14 15 16 18 19 21 24 26 27 28 29 29 29 29 29 30
3 1 2 5 7 7 5 5 4 3 1 3 5 5 6 5 5 4 3 4 3 1 3 7 6 5 7 6 5 5 6 7 8 7 6 6 5 5 5 5 5 5 5 6 6 6 6 7 10 11 11 10 9 8 7 7 7 8 9 10 11 10 9 9 9 10 11 12 12 14 16 16 17 18 19 22 24 26 28 29 29 29 30 30 30 32
4 1 3 6 6 7 5 5 3 1 2 6 7 8 9 7 5 6 5 4 2 2 7 11 7 5 9 10 6 6 7 7 8 7 7 7 6 6 5 5 6 6 5 6 6 6 6 7 9 12 13 12 11 10 9 9 9 10 12 14 15 14 12 11 11 10 11 11 13 16 18 20 22 23 24 25 26 26 26 26 27 27 28 29 30 31
5 3 4 4 5 7 5 4 4 3 3 5 7 9 11 11 8 7 7 7 6 7 10 12 10 9 11 11 7 6 7 7 8 7 5 6 6 6 6 6 6 6 6 6 6 7 7 6 7 9 9 7 5 4 5 7 10 12 13 13 14 12 11 12 11 11 12 14 16 19 21 24 27 29 30 31 30 30 29 29 29 28 28 28 29 30
4 2 2 3 4 7 6 4 3 4 5 7 10 12 14 14 12 8 9 10 10 11 13 12 13 14 12 7 6 6 6 6 4 2 4 7 7 6 6 6 6 6 6 6 5 4 3 1 2 4 6 8 10 11 12 13 14 14 14 13 12 12 12 13 14 15 17 20 22 24 27 29 31 32 33 33 32 32 32 31 31 31 30 31 31 31
2 1 1 2 0 6 4 1 2 5 6 7 11 14 14 12 11 11 10 9 8 10 12 10 10 12 7 3 4 4 3 5 4 5 6 6 7 7 6 6 6 5 5 5 4 3 4 6 9 11 12 12 12 12 12 12 13 12 11 12 12 13 14 15 17 19 21 23 25 28 30 31 32 33 33 33 33 33 33 33 34 34 34 33 33 33
1 1 1 4 1 6 3 3 4 6 4 7 13 17 15 11 10 10 8 7 9 10 9 7 8 9 5 2 3 1 4 5 5 5 5 4 6 7 6 6 6 5 6 5 6 6 5 6 9 10 10 9 9 10 10 10 9 9 10 11 12 14 16 17 19 21 23 24 26 26 26 26 27 29 29 30 31 33 35 37 39 41 40 39 38 37
3 3 1 3 2 5 2 4 4 2 4 7 12 13 14 12 11 10 9 10 11 8 6 7 8 8 5 4 5 2 4 5 5 5 4 5 5 6 6 6 6 6 6 6 6 6 6 8 9 9 8 7 7 8 7 7 7 8 10 12 14 16 18 19 21 22 23 24 23 22 22 22 23 25 26 27 30 33 36 38 40 41 41 41 42 42
4 5 3 3 3 4 2 4 3 2 6 8 5 6 9 10 11 11 12 12 10 7 6 5 4 5 5 6 7 6 5 5 5 4 4 4 5 5 5 5 5 5 6 6 6 6 9 10 10 8 7 5 4 4 3 4 6 8 10 13 16 18 20 21 21 22 22 22 21 20 20 21 22 24 27 29 31 33 34 35 36 37 37 37 39 40
5 5 3 3 3 2 2 5 3 8 9 4 1 3 6 8 9 10 11 10 9 8 7 5 3 5 6 6 6 7 6 5 4 4 5 5 6 6 4 5 5 6 6 5 5 7 10 10 8 7 6 5 3 2 3 5 7 10 13 16 19 20 21 21 21 21 20 19 19 19 20 21 24 26 29 30 30 31 32 32 33 34 34 35 36 38
6 5 3 3 2 1 2 4 6 6 5 6 6 4 2 3 5 5 7 9 8 7 6 6 6 7 6 5 5 5 5 3 1 2 5 4 5 5 5 6 6 6 6 7 8 10 10 8 7 6 6 4 2 2 5 7 10 13 16 18 19 20 21 21 20 19 18 17 18 19 20 22 25 27 28 29 30 31 31 31 32 33 33 35 37 39
7 5 3 2 2 2 3 6 5 4 8 11 10 5 3 4 5 4 4 7 7 4 5 5 5 6 6 5 5 4 4 4 4 2 3 2 4 6 6 6 7 7 8 11 12 12 10 8 7 7 5 4 2 4 6 9 13 16 19 20 19 19 19 19 19 18 17 18 19 20 21 23 25 27 28 29 30 31 32 32 33 34 33 34 37 39
6 6 5 3 3 2 3 4 4 3 6 9 6 3 2 3 4 6 2 4 6 3 3 5 7 7 6 5 5 4 4 3 1 2 4 3 3 5 4 4 8 11 13 14 13 12 10 9 8 6 4 2 2 5 8 12 16 18 19 19 18 18 18 17 16 16 18 20 22 23 24 25 26 27 29 30 30 31 33 33 34 34 33 34 36 38
6 5 5 4 4 4 4 4 5 5 6 5 3 2 2 3 5 6 3 4 5 5 3 5 7 7 7 6 6 5 4 2 4 4 5 5 4 5 4 5 9 12 13 12 12 11 11 9 7 5 2 2 3 7 11 15 17 18 18 17 17 17 16 15 16 17 20 22 23 25 26 26 27 28 30 31 31 31 32 34 34 34 34 34 35 38
5 3 4 5 6 7 7 5 5 5 5 5 5 5 4 2 6 7 3 6 6 5 4 7 9 9 8 7 5 4 4 5 5 5 6 6 5 5 5 7 11 13 13 12 12 11 10 7 5 3 2 3 5 9 14 17 17 17 16 16 16 16 15 16 17 19 21 23 24 25 26 27 28 29 29 31 32 32 32 33 34 34 34 36 36 37
2 1 3 6 8 10 9 7 4 4 4 6 7 7 4 2 5 1 6 7 5 5 5 7 9 9 8 7 5 4 5 6 6 4 5 6 5 4 6 10 12 13 13 13 12 10 8 5 4 3 2 4 8 12 16 16 16 16 15 15 15 15 16 17 19 21 22 23 25 26 27 27 27 28 29 30 31 33 32 32 33 34 35 36 37 37
2 1 2 4 6 6 6 5 5 4 4 6 6 3 2 3 1 6 6 3 5 6 6 6 8 8 7 7 7 6 6 6 5 5 5 6 5 5 8 11 12 12 12 12 9 7 5 4 3 2 3 7 11 14 15 15 15 14 14 14 15 16 17 19 20 22 23 25 26 27 27 27 27 27 29 30 30 32 33 33 33 34 34 35 36 36
5 3 2 4 4 2 3 5 5 4 3 7 6 1 0 4 5 5 3 2 4 7 7 7 7 7 7 7 7 7 6 6 5 5 5 5 5 6 9 11 12 12 11 9 6 4 3 2 2 3 6 9 13 15 15 14 14 13 14 15 16 17 19 20 21 23 24 26 27 28 28 28 28 28 29 30 30 31 32 33 33 33 33 33 35 35
3 4 4 4 3 4 4 5 5 5 5 6 7 4 5 6 5 5 4 4 4 5 6 6 7 8 8 8 7 7 6 6 6 5 5 4 4 6 9 10 12 11 10 7 5 2 1 2 3 6 8 11 13 14 14 12 13 13 15 16 17 19 21 22 22 24 26 27 28 28 29 28 29 29 30 30 30 30 31 32 33 32 32 32 33 33
5 6 4 4 3 5 5 5 4 4 4 5 6 6 7 7 6 6 6 5 5 5 5 6 7 9 8 7 7 7 6 7 6 6 5 5 5 7 8 9 11 11 9 7 4 1 3 5 7 8 10 12 13 13 12 11 12 15 17 17 19 20 22 23 24 25 27 28 28 29 30 30 30 30 30 29 29 30 31 32 32 31 31 31 31 31
6 4 2 1 1 1 2 3 3 3 3 4 6 7 7 7 7 6 7 6 6 6 6 6 8 9 8 8 8 7 7 8 7 6 6 5 5 7 9 10 10 9 8 5 2 2 5 8 10 11 12 13 12 12 12 12 12 15 17 18 20 21 22 23 25 26 27 28 29 29 30 30 30 30 29 30 30 30 31 31 30 29 30 31 30 30
5 4 4 3 2 2 2 3 4 5 7 8 8 7 6 7 7 6 6 6 7 7 8 8 9 9 8 8 9 9 8 8 7 6 5 6 6 6 9 10 9 8 6 3 1 4 7 10 12 13 13 13 13 13 13 14 14 15 18 19 20 21 22 24 25 27 28 29 30 30 29 29 30 30 30 30 30 30 30 30 28 28 29 30 30 30
3 4 5 6 7 6 5 5 7 9 11 9 7 5 6 7 8 8 7 7 7 8 8 8 8 8 8 8 10 9 8 7 7 7 6 6 6 6 8 9 9 7 3 1 3 6 8 10 12 13 13 14 14 14 15 15 16 17 18 19 20 21 22 24 25 26 29 30 30 30 28 28 29 30 30 30 30 29 29 30 29 28 29 31 31 30
3 4 4 4 4 3 4 6 8 9 10 9 7 7 8 8 9 9 8 8 8 8 7 8 8 8 8 9 9 8 7 8 7 7 7 6 5 6 8 8 7 5 2 2 4 7 9 10 11 11 12 14 15 15 16 17 17 17 18 19 20 21 23 25 26 27 29 29 28 28 28 28 28 29 29 30 29 28 29 30 29 28 30 32 31 28
4 7 6 3 2 5 7 9 8 6 7 9 8 9 10 9 9 9 10 9 8 8 8 8 7 6 7 8 8 8 8 7 6 7 6 5 6 7 8 8 5 3 3 4 6 8 9 9 10 11 13 15 15 16 17 18 18 17 17 18 20 21 22 25 26 27 28 27 27 28 28 28 28 28 28 29 29 28 30 31 30 27 27 30 31 29
7 9 7 4 6 10 12 11 8 6 8 10 9 10 10 8 8 10 11 10 10 10 10 9 8 6 6 6 7 8 8 6 7 8 6 5 7 8 7 6 4 3 4 6 7 8 9 8 9 11 13 15 15 17 18 18 18 17 18 18 19 21 22 23 24 26 27 27 27 28 28 28 28 28 28 28 28 27 28 31 34 34 29 26 27 29
Wind_Direction
135 122 161 197 207 217 220 216 219 227 228 233 251 258 254 262 271 269 273 279 300 309 265 261 287 298 292 290 283 282 294 305 296 325 67 88 79 72 75 71 66 65 54 43 42 39 40 42 44 45 45 48 52 52 53 55 55 56 58 58 58 59 59 55 57 63 80 104 119 128 142 151 160 184 200 207 217 225 232 237 239 240 240 239 237 237
121 162 217 216 211 221 229 226 229 240 245 243 245 260 270 264 265 273 277 284 320 335 265 296 337 312 299 289 281 289 323 333 335 71 88 86 79 71 71 66 65 68 51 45 42 37 38 39 41 43 43 45 46 48 52 54 56 57 58 58 58 61 64 64 63 63 63 65 71 90 112 128 149 174 201 207 213 225 230 234 237 238 240 239 239 241
149 217 237 227 216 229 250 250 246 252 257 264 271 285 285 273 282 292 294 312 354 358 280 314 324 297 287 280 291 321 38 38 42 80 83 78 81 69 63 63 61 62 48 43 40 36 36 35 37 40 40 43 44 46 50 53 57 58 58 58 59 60 60 61 63 64 65 68 72 79 99 125 145 153 196 221 225 236 239 243 246 247 249 248 247 246
181 233 238 233 219 226 254 261 257 265 274 274 273 281 280 286 311 290 303 331 338 286 265 306 310 299 281 282 338 30 78 79 60 72 74 73 81 74 69 65 56 59 50 44 42 35 35 35 35 36 37 40 43 43 45 48 52 54 56 59 60 60 60 61 63 62 59 63 68 72 84 96 107 118 142 194 215 231 238 243 249 253 257 257 256 254
212 229 225 226 208 203 233 258 258 261 286 269 225 219 253 270 249 239 274 321 324 317 341 10 342 310 267 271 56 66 67 74 66 71 72 66 76 81 75 64 54 57 54 50 48 36 36 37 35 35 37 41 43 42 42 45 48 52 56 58 60 61 62 64 66 67 66 66 65 64 65 65 68 71 62 40 286 243 238 242 246 253 259 263 266 265
238 244 227 242 242 202 208 247 241 210 265 299 238 210 212 210 209 234 326 358 14 341 332 40 9 293 287 291 218 135 63 59 59 65 75 69 67 72 68 62 54 51 52 52 52 46 42 41 41 40 38 40 42 43 45 47 50 54 57 59 59 59 60 61 65 71 75 76 72 68 63 57 53 48 37 26 9 309 268 260 242 250 265 274 276 274
233 234 186 210 230 201 193 241 231 178 150 301 250 189 162 143 130 53 19 23 51 259 291 62 109 267 310 295 261 137 90 73 68 63 70 69 59 63 63 61 53 46 44 45 48 47 44 43 44 42 40 41 42 45 50 52 52 53 57 60 60 58 57 57 60 67 73 76 76 75 71 63 55 48 40 37 40 42 21 6 226 303 323 310 305 294
205 164 115 144 166 171 190 242 229 155 135 249 239 142 110 86 74 66 72 69 227 248 315 324 189 255 277 256 257 122 102 88 82 72 65 69 64 65 63 55 52 46 38 38 41 40 40 42 44 44 43 45 46 47 50 53 53 54 55 57 59 59 57 55 57 62 67 70 73 73 72 68 61 53 47 46 51 53 44 34 17 351 346 339 338 329
193 162 196 166 139 167 201 234 209 138 140 236 222 135 98 106 165 164 123 201 260 17 314 276 185 241 265 258 266 120 134 182 138 117 94 89 79 74 68 55 49 46 40 34 37 37 35 37 40 44 45 47 49 49 49 51 54 56 56 57 57 56 55 54 54 58 62 67 69 69 67 64 61 57 55 53 50 50 47 44 32 357 341 333 333 341
262 188 200 151 143 204 218 241 190 142 180 221 173 104 45 53 148 134 137 154 7 39 258 248 180 191 266 283 308 121 179 202 164 137 117 103 87 76 68 59 45 41 44 31 31 39 38 39 40 43 46 46 47 49 51 51 52 55 56 57 56 54 54 54 53 54 57 61 63 63 61 57 54 53 53 53 49 44 41 41 37 28 18 358 334 329
286 287 213 151 179 198 178 169 84 132 168 126 88 52 18 5 23 52 105 102 60 295 251 233 199 187 268 291 231 192 208 171 153 150 140 111 83 72 60 58 45 38 48 34 28 36 40 45 45 46 46 44 44 47 49 49 50 52 54 55 55 53 53 54 53 53 53 56 58 58 57 55 50 46 44 43 40 35 31 28 25 26 29 28 19 0
315 326 252 236 215 141 112 85 15 36 98 96 77 65 31 340 7 30 8 48 97 252 261 243 199 178 216 264 233 286 323 148 148 159 151 123 92 77 62 59 47 41 49 37 27 32 36 40 41 43 44 42 43 45 45 46 47 49 50 53 55 52 52 53 53 53 52 54 56 56 57 55 50 46 43 40 36 32 30 27 21 19 19 21 24 21
262 232 245 293 290 141 116 84 343 358 40 88 93 86 73 334 358 12 311 62 200 245 248 214 143 164 219 251 264 26 12 40 100 122 131 120 106 95 76 69 52 45 53 42 31 30 34 35 35 39 41 41 42 42 44 46 46 48 49 52 53 50 50 52 53 53 53 53 54 55 56 55 53 50 46 42 38 34 31 28 25 22 18 14 14 13
304 296 270 237 301 173 141 153 229 281 143 138 140 131 131 146 170 255 256 247 261 264 244 210 98 262 247 281 12 51 43 52 80 93 106 109 110 109 96 86 65 52 51 43 38 37 38 37 37 40 42 43 43 43 45 47 47 48 48 50 53 52 53 55 55 54 54 54 55 56 56 55 53 52 49 46 42 38 35 32 28 24 19 14 10 6
222 304 240 182 252 176 166 187 174 144 156 177 163 142 145 158 172 214 226 217 256 276 274 270 269 206 212 323 47 76 74 73 84 92 95 95 100 102 91 78 64 56 49 38 38 38 40 41 42 45 47 46 46 46 48 48 48 50 49 50 52 53 54 56 56 56 56 56 56 57 57 55 54 52 51 50 47 44 41 38 36 31 25 19 12 5
181 259 252 218 172 157 175 225 142 109 98 221 137 110 166 191 167 195 232 203 210 284 285 263 238 207 156 81 63 84 77 73 80 86 90 89 86 89 84 73 65 57 46 42 43 38 40 47 50 50 50 49 49 50 49 48 48 49 50 51 53 53 54 54 55 55 55 56 56 56 56 54 53 51 49 48 47 45 44 42 40 36 32 26 20 15
172 259 279 11 24 177 183 210 156 122 181 208 107 179 221 180 135 148 276 261 130 256 259 218 247 279 92 77 57 80 78 75 79 82 91 96 92 93 95 95 96 88 72 63 67 61 53 53 54 53 52 51 51 50 49 48 47 46 46 47 48 49 50 50 51 52 52 53 54 53 52 50 49 47 45 44 43 43 43 42 40 37 33 28 23 19
164 265 276 151 197 241 193 151 30 41 121 132 166 223 230 69 83 110 263 317 329 249 264 254 247 251 211 229 204 103 102 100 105 104 105 107 108 116 133 153 177 176 133 76 71 69 63 58 54 55 54 53 51 48 47 47 46 46 47 46 46 44 43 43 45 47 47 48 48 47 46 45 43 41 38 36 34 33 34 35 34 32 29 26 21 17
125 283 286 248 183 271 9 84 346 339 47 128 183 226 123 84 310 358 152 232 252 251 275 279 261 248 218 204 174 175 169 147 140 132 132 142 149 160 172 195 215 204 112 73 70 59 56 57 51 52 53 50 50 47 44 45 45 47 48 49 49 47 45 44 44 44 43 43 43 40 39 37 35 33 30 27 24 23 23 22 21 19 17 15 12 10
99 127 282 303 269 308 21 65 207 277 342 36 30 341 49 158 191 215 189 180 212 241 261 270 268 264 234 191 179 199 186 158 153 152 161 175 181 190 192 194 206 193 170 122 86 59 51 60 60 58 55 49 46 39 38 42 43 44 42 44 48 46 47 47 45 44 41 39 37 34 32 29 26 24 21 18 16 15 15 13 11 9 7 4 1 0
68 141 230 304 337 35 28 192 179 188 203 48 30 314 282 221 193 257 244 166 165 217 245 257 260 260 252 222 197 192 167 152 158 159 173 198 199 204 204 193 194 188 183 172 110 81 51 57 66 61 49 39 37 29 34 41 42 45 36 33 36 34 38 42 43 44 41 39 37 31 27 22 18 16 14 12 11 10 9 7 4 2 359 356 354 353
117 157 186 275 315 196 226 225 170 153 150 138 162 200 188 158 166 274 267 218 171 205 215 235 260 270 261 265 161 137 138 152 167 163 175 205 206 206 212 204 195 180 174 186 184 190 218 235 239 238 258 270 92 61 73 82 62 55 37 29 26 25 30 33 37 40 38 37 35 28 23 17 7 6 7 7 6 4 2 360 358 355 352 349 348 347
125 106 125 249 247 219 238 250 168 141 147 144 175 200 160 148 152 212 249 246 223 237 200 210 254 272 255 250 153 132 151 166 174 174 181 201 210 209 210 207 194 182 187 202 215 219 224 236 245 242 235 217 195 184 175 194 199 226 275 359 6 9 19 19 21 24 22 21 21 16 14 9 357 356 359 359 357 355 353 350 349 347 343 341 340 340
84 89 99 271 287 301 301 323 8 46 117 141 307 43 142 164 169 193 221 219 222 238 252 271 255 225 219 236 166 144 163 171 183 193 192 199 211 212 208 205 197 198 211 219 221 228 233 240 239 223 216 214 213 222 233 234 241 261 299 331 341 348 357 359 1 5 6 5 6 4 2 358 353 350 350 351 350 348 346 342 339 337 335 333 332 332
97 124 124 156 301 317 332 343 355 7 53 138 247 254 173 164 163 169 181 181 227 222 225 249 255 235 204 220 93 144 174 193 215 216 206 208 214 211 202 198 196 195 205 216 218 223 227 219 199 193 201 208 213 223 234 246 271 313 339 343 341 342 347 348 344 345 347 348 352 355 354 351 347 344 343 342 341 340 337 334 331 329 328 326 325 325
140 168 134 138 216 245 257 242 227 337 6 292 256 271 235 176 177 189 214 235 244 225 201 242 250 270 275 204 210 229 209 216 238 236 227 226 215 200 190 186 187 184 190 200 194 187 195 198 196 197 205 215 222 233 246 258 277 296 308 319 324 325 332 338 335 332 334 335 338 344 345 344 341 338 336 333 331 330 328 326 325 323 322 321 320 320
111 189 170 164 200 223 221 210 179 113 86 268 277 280 269 243 203 202 233 235 233 339 284 256 245 261 273 255 215 217 222 228 239 233 223 222 200 184 183 182 179 181 187 190 182 183 195 205 206 205 208 218 225 233 245 256 269 281 289 301 311 310 312 324 326 326 329 330 334 340 344 343 339 334 330 326 324 322 320 320 320 319 318 318 316 316
103 272 230 182 213 238 229 231 245 102 199 234 253 264 264 256 210 195 218 218 199 268 265 260 251 243 263 265 234 205 216 231 243 236 218 204 183 173 176 175 177 186 194 191 186 190 197 204 209 210 213 220 226 235 251 270 289 301 304 309 313 313 319 330 334 334 337 338 339 340 339 336 332 329 327 324 322 320 318 317 316 315 314 314 313 313
116 247 240 175 227 256 252 263 288 296 251 236 248 259 263 259 238 220 226 218 211 238 257 265 267 257 259 267 258 227 214 221 242 248 213 175 165 162 160 165 179 194 201 202 206 207 207 217 226 224 225 231 248 288 327 345 350 349 344 338 334 333 340 344 344 343 341 338 335 334 331 329 327 324 323 322 322 322 321 320 319 317 315 314 312 311
111 247 245 169 231 263 263 262 279 280 269 266 264 259 259 262 258 248 241 230 220 234 249 260 266 266 265 258 247 238 210 194 203 185 132 142 157 161 162 173 193 211 214 214 224 226 213 192 63 63 59 51 42 33 24 16 9 4 3 2 357 352 351 346 340 337 334 332 331 331 328 326 324 322 321 321 323 323 323 322 321 320 318 317 316 315
84 191 228 112 248 282 280 158 219 254 256 266 272 265 260 267 270 260 251 243 236 241 248 255 262 266 268 235 226 228 162 135 133 138 146 157 164 162 171 190 205 217 219 208 184 143 109 89 81 77 71 61 51 39 26 14 9 5 1 358 351 345 341 336 331 330 329 328 327 325 323 321 319 318 319 321 322 322 321 321 320 319 318 318 317 316
83 167 328 79 85 281 296 118 218 269 300 285 272 264 258 256 258 257 247 233 235 241 249 252 252 259 268 267 256 206 113 119 131 137 141 159 167 164 173 193 204 208 204 177 145 126 111 102 99 95 83 65 48 37 25 14 12 10 359 350 345 338 332 329 329 327 325 324 323 321 320 317 315 315 316 317 317 316 315 314 314 315 315 315 315 313
128 135 149 118 163 269 282 142 195 288 343 285 262 253 251 248 249 256 255 243 239 235 236 239 243 251 254 246 245 213 126 129 140 140 144 161 177 182 181 188 198 200 187 162 143 129 120 118 113 101 81 56 39 29 20 8 5 4 353 342 338 333 327 326 326 323 321 321 322 321 319 317 316 314 313 313 312 311 311 311 311 311 312 312 312 311
143 141 175 168 170 248 232 124 129 234 260 257 229 195 218 231 237 245 250 249 242 228 230 245 252 241 225 217 217 200 169 160 161 175 188 179 186 206 213 207 195 182 172 160 145 134 129 125 113 96 80 65 50 43 24 356 350 346 336 329 329 329 327 326 325 324 323 323 324 324 323 320 317 314 312 312 312 311 311 311 311 310 310 311 309 308
156 155 184 176 154 205 148 102 162 233 241 251 186 182 206 212 219 235 250 255 246 236 240 250 235 213 206 204 196 178 173 179 178 202 228 217 201 204 211 206 184 164 160 159 143 136 135 127 112 97 92 92 80 53 7 340 335 330 325 326 327 328 329 328 327 327 327 326 326 325 323 319 316 314 314 314 314 313 312 311 310 309 309 308 306 304
166 167 179 175 167 183 161 179 214 242 285 304 289 271 251 223 219 240 271 266 247 227 220 229 232 215 190 179 178 162 153 151 134 238 252 240 208 189 171 174 182 176 170 168 156 146 139 124 112 111 111 108 84 21 355 340 334 329 327 329 329 328 330 330 329 330 329 326 325 323 321 318 316 315 316 315 315 314 313 311 310 308 308 307 304 302
161 164 169 191 211 194 200 227 249 326 316 286 273 257 230 232 215 199 249 265 255 214 175 182 205 198 169 158 168 148 104 64 37 334 266 234 172 169 167 173 185 179 161 154 148 139 132 122 119 125 128 114 56 360 345 334 329 328 329 330 331 331 331 331 330 330 327 323 323 322 320 319 318 316 316 317 316 314 313 311 309 308 309 308 305 304
170 180 178 194 229 187 175 244 273 300 273 262 261 255 237 218 172 148 157 276 275 256 189 164 168 174 163 158 168 134 82 59 325 240 238 235 172 166 172 169 167 159 146 142 140 131 127 129 126 124 128 109 21 346 337 330 329 330 330 331 332 331 331 331 329 325 322 322 322 322 320 320 319 318 317 317 315 313 311 310 309 308 309 307 304 302
173 187 174 185 232 214 192 226 235 238 251 245 221 217 219 174 133 102 49 296 265 255 224 163 161 174 173 169 166 126 101 172 242 245 232 229 208 187 176 144 144 146 140 139 143 138 132 132 127 117 105 46 356 337 332 330 330 331 331 331 331 330 329 328 325 322 321 321 321 320 320 320 319 318 317 315 313 311 309 308 308 307 306 305 302 301
150 164 178 196 224 224 219 233 238 236 246 227 201 209 222 155 89 72 334 272 244 235 209 161 165 185 183 170 162 145 156 195 227 239 217 204 199 199 190 165 155 149 138 134 141 140 135 133 123 101 57 10 344 332 330 330 331 331 331 330 329 327 327 323 320 320 320 319 319 318 318 319 317 316 315 312 311 310 309 308 307 306 305 304 302 300
113 156 207 211 223 226 223 233 252 249 225 206 207 217 214 81 65 90 247 243 214 218 211 170 172 185 177 164 169 187 206 209 212 218 203 185 178 178 173 163 156 149 141 138 139 137 132 124 105 82 42 346 331 330 331 331 330 330 329 327 326 324 323 321 320 320 319 317 317 317 317 317 316 315 313 312 311 310 308 307 306 305 305 304 302 300
140 155 250 225 223 230 226 231 261 276 226 184 190 217 156 112 213 234 232 210 179 196 206 190 184 184 177 180 191 206 226 228 219 216 201 182 172 163 156 149 141 138 139 139 136 133 128 113 88 54 349 333 332 334 335 332 329 329 327 323 323 323 322 322 321 320 318 317 317 317 317 316 316 315 314 313 312 309 307 307 307 305 305 304 302 301
163 158 228 222 196 185 218 227 239 263 224 160 142 81 148 183 210 216 206 208 198 193 198 201 199 193 190 199 210 217 229 239 236 226 215 197 173 163 164 160 151 146 145 143 138 130 120 97 52 354 335 334 333 334 335 331 328 328 323 319 322 325 323 322 322 320 318 318 318 317 317 317 317 316 315 313 312 309 307 307 307 307 306 304 302 301
182 161 195 227 185 148 190 219 213 221 217 170 152 179 213 208 198 169 168 216 226 204 197 203 214 212 199 200 217 225 230 239 236 225 222 215 178 160 162 161 157 155 153 151 148 132 63 8 350 338 331 331 332 332 334 333 328 323 318 320 326 326 323 322 322 320 319 319 318 318 319 318 318 317 316 315 314 311 308 308 308 306 305 304 302 301
217 188 198 238 207 164 186 217 219 222 212 183 181 199 214 224 216 185 184 210 222 209 198 199 219 224 208 199 213 221 221 224 220 209 205 200 177 161 158 158 157 158 157 155 156 196 328 333 334 331 328 329 331 332 334 335 327 318 318 324 328 326 324 324 323 321 321 320 319 320 320 318 318 318 317 317 316 313 310 308 307 305 304 304 303 301
236 218 233 262 202 177 206 200 215 264 252 211 214 219 219 228 227 201 194 211 219 213 203 201 214 221 213 204 209 216 217 213 211 211 200 183 169 159 154 150 149 153 158 159 168 301 320 326 325 325 327 328 330 331 333 335 329 320 321 326 328 326 325 325 324 323 322 321 320 320 320 319 318 318 318 317 316 313 308 305 303 302 303 303 301 300
257 229 226 230 238 278 259 173 186 238 242 231 231 235 237 244 242 220 205 216 226 222 214 212 216 218 214 206 203 209 213 205 203 211 192 169 171 166 154 152 151 152 159 165 260 311 317 321 322 324 325 324 327 330 331 332 331 326 326 328 329 329 329 327 326 323 321 321 321 320 320 319 317 317 318 317 315 311 306 303 302 301 300 300 299 299
247 209 213 230 237 243 249 238 232 241 248 248 240 231 232 239 241 236 231 232 238 236 228 220 217 215 213 209 203 204 207 202 201 206 188 169 174 167 156 158 158 155 159 209 294 309 316 319 319 319 318 319 324 328 329 331 332 330 330 331 332 333 331 328 326 323 320 320 320 319 318 318 316 316 316 314 312 308 304 304 303 301 299 298 297 296
223 220 209 204 224 255 267 250 241 250 264 265 248 229 228 231 234 240 243 241 241 242 239 230 223 214 206 203 196 191 201 210 204 193 181 173 170 162 158 158 160 166 191 268 296 306 313 314 313 312 313 316 322 326 327 329 329 331 333 335 336 336 332 327 326 322 320 319 318 318 318 317 316 316 314 311 308 305 304 304 303 299 298 299 298 294
214 238 232 194 228 261 255 238 228 239 261 259 247 236 232 229 230 238 245 245 237 230 224 220 221 219 212 206 193 184 198 213 198 173 169 168 161 159 160 161 166 189 240 281 298 304 308 309 308 308 310 315 321 325 325 326 328 333 337 339 338 336 331 327 325 321 318 318 318 317 318 317 316 315 313 309 306 305 306 307 306 300 295 297 299 299
219 234 233 220 234 246 251 245 226 218 244 253 250 244 238 229 226 233 239 239 233 224 213 203 200 204 212 213 199 189 195 198 176 163 156 148 152 159 163 173 190 226 268 286 297 304 305 304 305 306 309 315 320 322 323 324 327 334 339 339 338 335 330 327 323 317 316 317 317 317 317 316 315 314 311 307 306 306 308 311 312 311 306 300 299 304